Location: Unspecified
(54.1780°N, 0.0000°E)
Time: 04:00:39
(UTC+00:00)

Tiros 1 - Pass Details

Date: 22 June 2019
Orbit: 630 x 664 km, 48.4° (Epoch: 21 July)

Event Time Altitude Azimuth Distance (km) Brightness Sun altitude
Rises 01:05:00 0° 241° (WSW) 2,940 - -11.2°
Exits shadow 01:07:07 - 235° (SW) 2,149 9.4 -11.1°
Reaches altitude 10° 01:07:28 10° 233° (SW) 2,026 9.2 -11.1°
Maximum altitude 01:11:43 36° 167° (SSE) 1,007 7.7 -10.9°
Drops below altitude 10° 01:15:58 10° 101° (ESE) 2,015 9.8 -10.8°
Sets 01:18:24 0° 93° (E) 2,921 10.7 -10.6°
